EW8735 Weather Reports


time (UTC)temp
F
wind
direction
speed
knots
gust
knots
rain 1hr
in
rain 24hr
in
rain mn
in
humidity
%
barometer
mb
20260508100048 46 222 0.0 0.0 0.00 0.00 0.00 50 1011.8
20260508094548 46 222 0.0 0.0 0.00 0.00 0.00 51 1011.8
20260508093050 49 222 0.0 0.0 0.00 0.00 0.00 44 1011.8
20260508091547 52 222 0.0 0.0 0.00 0.00 0.00 37 1011.5
20260508090051 52 223 0.0 0.0 0.00 0.00 0.00 33 1011.5
20260508084534 52 222 0.0 0.0 0.00 0.00 0.00 32 1011.5
20260508083033 51 222 0.0 0.0 0.00 0.00 0.00 33 1011.7
20260508081538 52 222 0.0 0.0 0.00 0.00 0.00 33 1011.7
20260508080032 55 222 0.0 0.0 0.00 0.00 0.00 28 1011.8
20260508074526 52 222 0.0 0.0 0.00 0.00 0.00 31 1011.8
20260508073023 52 222 0.0 0.0 0.00 0.00 0.00 37 1011.8
20260508071524 53 222 0.0 0.0 0.00 0.00 0.00 38 1011.8
20260508070018 54 222 0.0 0.0 0.00 0.00 0.00 38 1011.6
20260508064528 54 222 0.0 0.0 0.00 0.00 0.00 38 1011.4
20260508063016 53 222 0.0 0.0 0.00 0.00 0.00 44 1011.5
20260508061520 52 222 0.0 0.0 0.00 0.00 0.00 47 1011.4
20260508060022 52 222 0.0 0.0 0.00 0.00 0.00 49 1011.3
20260508054522 52 221 0.0 0.0 0.00 0.00 0.00 48 1011.2
20260508053015 53 222 0.0 0.0 0.00 0.00 0.00 48 1011.1
20260508051514 54 222 0.0 0.0 0.00 0.00 0.00 47 1010.9
20260508050017 55 222 0.0 0.0 0.00 0.00 0.00 44 1010.8
20260508044513 54 222 0.0 0.0 0.00 0.00 0.00 46 1010.6
20260508043016 54 222 0.0 0.0 0.00 0.00 0.00 46 1010.5
20260508041512 54 222 0.0 0.0 0.00 0.00 0.00 48 1010.5
20260508040023 54 222 0.0 0.0 0.00 0.00 0.00 49 1010.4
20260508034515 55 222 0.0 0.0 0.00 0.00 0.00 51 1010.3
20260508033011 57 222 0.0 0.0 0.00 0.00 0.00 49 1010.1
20260508031511 58 222 0.0 0.0 0.00 0.00 0.00 49 1010.1
20260508030013 62 222 0.0 0.0 0.00 0.00 0.00 47 1009.9
20260508024517 64 222 0.0 0.0 0.00 0.00 0.00 43 1009.8
20260508023010 66 222 0.0 0.0 0.00 0.00 0.00 40 1009.7
20260508021513 69 224 0.0 0.0 0.00 0.00 0.00 39 1009.6
20260508020010 72 241 0.0 0.0 0.00 0.00 0.00 24 1009.7
20260508014508 73 241 0.0 0.0 0.00 0.00 0.00 23 1009.7
20260508013008 74 276 0.0 0.0 0.00 0.00 0.00 19 1009.7
20260508011512 75 276 0.0 0.0 0.00 0.00 0.00 15 1009.7
20260508010006 75 287 0.0 0.0 0.00 0.00 0.00 15 1009.8
20260508004504 75 289 0.0 0.0 0.00 0.00 0.00 19 1009.9
20260508003005 75 286 0.0 0.0 0.00 0.00 0.00 23 1009.9
20260508001508 75 321 0.0 0.0 0.00 0.00 0.00 22 1010.0
20260508000002 76 321 0.0 0.0 0.00 0.00 0.00 25 1010.0
20260507234500 77 359 0.0 0.0 0.00 0.00 0.00 20 1010.1
20260507233100 77 325 0.0 0.0 0.00 0.00 0.00 22 1010.1
20260507231558 77 25 0.0 0.0 0.00 0.00 0.00 23 1010.2
20260507230056 75 18 0.0 0.0 0.00 0.00 0.00 24 1010.4
20260507224553 75 341 0.0 0.0 0.00 0.00 0.00 21 1010.6
20260507223053 75 22 0.0 0.0 0.00 0.00 0.00 21 1010.7
20260507221550 76 37 0.0 0.0 0.00 0.00 0.00 25 1010.9
20260507220047 75 37 0.0 0.0 0.00 0.00 0.00 23 1011.2
20260507214548 75 58 0.0 0.0 0.00 0.00 0.00 26 1011.3
20260507213050 74 57 0.0 0.0 0.00 0.00 0.00 24 1011.5
20260507211549 74 343 0.0 0.0 0.00 0.00 0.00 31 1011.7
20260507210042 73 252 0.0 0.0 0.00 0.00 0.00 27 1011.8
20260507204536 72 244 0.0 0.0 0.00 0.00 0.00 29 1012.0
20260507203032 71 244 0.0 0.0 0.00 0.00 0.00 30 1012.1
20260507201539 70 244 0.0 0.0 0.00 0.00 0.00 29 1012.2
20260507200035 70 242 0.0 0.0 0.00 0.00 0.00 29 1012.4
20260507194528 70 243 0.0 0.0 0.00 0.00 0.00 35 1012.5
20260507193025 69 243 0.0 0.0 0.00 0.00 0.00 35 1012.5
20260507191526 69 243 0.0 0.0 0.00 0.00 0.00 36 1012.6
20260507190022 68 243 0.0 0.0 0.00 0.00 0.00 42 1012.7
20260507184520 68 243 0.0 0.0 0.00 0.00 0.00 38 1012.8
20260507183018 67 243 0.0 0.0 0.00 0.00 0.00 39 1013.0
20260507181517 66 242 0.0 0.0 0.00 0.00 0.00 38 1013.0
20260507180034 67 242 0.0 0.0 0.00 0.00 0.00 40 1013.0
20260507174519 67 243 0.0 0.0 0.00 0.00 0.00 43 1013.0
20260507173018 66 243 0.0 0.0 0.00 0.00 0.00 46 1013.1
20260507171508 64 216 0.0 0.0 0.00 0.00 0.00 50 1013.1
20260507170021 64 217 0.0 0.0 0.00 0.00 0.00 50 1013.2
20260507164504 63 216 0.0 0.0 0.00 0.00 0.00 53 1013.2
20260507163004 63 218 0.0 0.0 0.00 0.00 0.00 54 1013.3
20260507161505 63 218 0.0 0.0 0.00 0.00 0.00 51 1013.4
20260507160059 61 217 0.0 0.0 0.00 0.00 0.00 55 1013.3
20260507154557 60 218 0.0 0.0 0.00 0.00 0.00 56 1013.2
20260507153103 59 218 0.0 0.0 0.00 0.00 0.00 58 1013.3
20260507151549 57 218 0.0 0.0 0.00 0.00 0.00 62 1013.3
20260507150050 54 217 0.0 0.0 0.00 0.00 0.00 69 1013.5
20260507144546 51 217 0.0 0.0 0.00 0.00 0.00 74 1013.5
20260507143057 50 218 0.0 0.0 0.00 0.00 0.00 76 1013.4
20260507141547 48 218 0.0 0.0 0.00 0.00 0.00 76 1013.4
20260507140042 47 217 0.0 0.0 0.00 0.00 0.00 79 1013.2
20260507134540 47 217 0.0 0.0 0.00 0.00 0.00 79 1012.9
20260507133044 46 219 0.0 0.0 0.00 0.00 0.00 78 1012.6
20260507131545 47 219 0.0 0.0 0.00 0.00 0.00 76 1012.6
20260507130036 48 218 0.0 0.0 0.00 0.00 0.00 72 1012.6
20260507124528 52 218 0.0 0.0 0.00 0.00 0.00 66 1012.6
20260507123026 52 219 0.0 0.0 0.00 0.00 0.00 65 1012.4
20260507121527 52 218 0.0 0.0 0.00 0.00 0.00 65 1012.5
20260507120027 52 218 0.0 0.0 0.00 0.00 0.00 64 1012.4
20260507114524 53 218 0.0 0.0 0.00 0.00 0.00 62 1012.5
20260507113026 53 219 0.0 0.0 0.00 0.00 0.00 60 1012.5
20260507111523 52 219 0.0 0.0 0.00 0.00 0.00 61 1012.4
20260507110022 53 218 0.0 0.0 0.00 0.00 0.00 60 1012.4
20260507104521 53 218 0.0 0.0 0.00 0.00 0.00 60 1012.4
20260507103020 52 218 0.0 0.0 0.00 0.00 0.00 62 1012.3
20260507101519 51 219 0.0 0.0 0.00 0.00 0.00 66 1012.5